Powrót do katalogu

STARLINK-32341

AktywnyŁącznośćVLEO
NORAD 61639·PAYLOAD·🇺🇸 United States

Wystrzelony Oct 23, 2024 z Cape Canaveral Space Force Station

Loading…

Następne Przeloty (najbliższe 24 godziny)

TLE

ŚwieżeSource: CelesTrak SupGP

Epoka: Sep 14, 2026, 21:22 UTC

1 61639C 24191U   26257.89076389 -.00012121  00000+0 -43922-3 0  2572
2 61639  42.9990 166.0552 0001524 271.7380  11.8959 15.27569191    15

Śledź STARLINK-32341 w czasie rzeczywistym z AllMySat

Download on the App Store